星链-30421 (STARLINK-30421 )

导读 | 豆包AI

STARLINK-30421是美国太空探索技术公司(SpaceX)于2023年10月21日发射的星链低轨通信卫星,属于星链星座组网卫星,旨在为全球提供高速低时延宽带互联网服务,尤其覆盖传统基础设施缺失的偏远地区。卫星采用平板设计、氪工质霍尔推进,具备自主避撞能力,寿命末期会离轨坠入大气层焚毁,降低太空垃圾风险。

基本信息
目录编号:
58107
目录名称:
STARLINK-30421
国际标识:
2023-161L
轨道中心:
EARTH
卫星名称:
星链-30421
卫星全名:
星链-30421 (STARLINK-30421 )
卫星状态:
在轨 (已飞行922 天)
发射日期:
2023-10-21 UTC
国别 :
美国 (US)
星等 :
--
轨道信息
数据来源 国际轨道数据 AOE轨道数据
星历时间 2026-04-30T14:00:02+0800
11小时前
查看轨道信息
2026-04-28T01:00:00+0800
3天前
查看轨道信息
半长轴 6843.771km 6853.372km
偏心率 0.0001382 0.0000715
轨道倾角 53.160° 53.155°
近地点辐角 68.196° 108.430°
升交点赤经 273.034° 284.862°
平近点角 23.942° 6.394°
近地点 464.688km 474.744km
远地点 466.58km 475.726km
周期 93.908分钟 94.106分钟
每日圈数 15.334145 15.301936
详细信息
固有亮度:
5
最大亮度:
0.3
卫星平台:
Starlink v2.0 mini
覆盖范围:
全球
运营商:
太空探索技术公司
运营商所在国:
美国
制造商(研发单位):
太空探索技术公司
制造商所在国:
美国
使用方式:
暂无
卫星简介
星链(Starlink)计划是由太空探索技术公司(SpaceX)提出的一个巨型低轨卫星互联网星座项目,计划在2019年至2024年间在太空搭建由约1.2万颗卫星组成的“星链”网络,其中1584颗将部署在地球上空550千米处的近地轨道,并从2020年开始工作。该卫星仍在工作。
2D轨道图
3D轨道图
轨道高度分析图
轨道倾角分析图
轨道综合分析图
查看轨道综合分析图